Weather History for Rolla, MO

Change the Weather History Date:

Sunday, July 28, 2013

  Actual Average Record
Temperature  
Mean Temperature 64 °F 78 °F  
Max Temperature 78 °F 89 °F 100 °F (1952)
Min Temperature 50 °F 67 °F 50 °F (2013)
Degree Days  
Heating Degree Days 1 0  
Month to date heating degree days 2 0  
Since 1 June heating degree days 19 14  
Since 1 July heating degree days 2 0  
Cooling Degree Days 0 13  
Month to date cooling degree days 263 345  
Year to date cooling degree days 587 687  
Since 1 June cooling degree days 480 580  
Growing Degree Days 13 (Base 50)    
Moisture  
Dew Point 55 °F    
Average Humidity 73    
Maximum Humidity 96    
Minimum Humidity 49    
Precipitation  
Precipitation 0.00 in 0.14 in 2.15 in (1898)
Month to date precipitation 3.04 4.03  
Year to date precipitation 28.13 25.47  
Sea Level Pressure  
Sea Level Pressure 30.02 in    
Wind  
Wind Speed 4 mph (SW)    
Max Wind Speed 14 mph    
Max Gust Speed 17 mph    
Visibility 10 miles    
Events      
T = Trace of Precipitation, MM = Missing Value Source: NWS Daily Summary

Daily Weather History Graph

Daily Weather History Graph

Search for Another Location

Airport:

Trip Planner

Search our weather history database for the weather conditions in past years. The results will help you decide how hot, cold, wet, or windy it might be!

Date:

Astronomy

Jul. 28, 2013 Rise Set
Actual Time 6:06 AM CDT 8:19 PM CDT
Civil Twilight 5:37 AM CDT 8:49 PM CDT
Nautical Twilight 5:00 AM CDT 9:25 PM CDT
Astronomical Twilight 4:20 AM CDT 10:05 PM CDT
Moon 11:49 PM CDT (7/28) 12:42 PM CDT (7/28)
Length of Visible Light 15h 12m
Length of Day
14h 13m
Waning Gibbous, 60% of the Moon is Illuminated
Jul 28
Waning Gibbous
Jul 29
Last Quarter
Aug 6
New
Aug 14
First Quarter
Aug 20
Full

Hourly Weather History & Observations

Time (CDT) Temp. Dew Point Humidity Pressure Visibility Wind Dir Wind Speed Gust Speed Precip Events Conditions
12:53 AM 51.1 °F 48.9 °F 92% 29.99 in 10.0 mi Calm Calm - N/A   Clear
1:53 AM 53.1 °F 48.9 °F 86% 30.00 in 10.0 mi Calm Calm - N/A   Clear
2:53 AM 52.0 °F 50.0 °F 93% 29.99 in 10.0 mi Calm Calm - N/A   Clear
3:53 AM 54.0 °F 50.0 °F 86% 30.00 in 10.0 mi Calm Calm - N/A   Clear
4:53 AM 54.0 °F 51.1 °F 90% 30.00 in 10.0 mi Calm Calm - N/A   Clear
5:53 AM 54.0 °F 51.1 °F 90% 30.02 in 10.0 mi Calm Calm - N/A   Clear
6:53 AM 55.9 °F 53.1 °F 90% 30.03 in 10.0 mi Calm Calm - N/A   Clear
7:53 AM 59.0 °F 55.9 °F 90% 30.03 in 10.0 mi South 4.6 mph - N/A   Clear
8:53 AM 64.9 °F 55.9 °F 73% 30.03 in 10.0 mi South 4.6 mph - N/A   Partly Cloudy
9:53 AM 69.1 °F 54.0 °F 58% 30.04 in 10.0 mi West 4.6 mph - N/A   Clear
10:53 AM 72.0 °F 53.1 °F 51% 30.04 in 10.0 mi Calm Calm - N/A   Clear
11:53 AM 73.0 °F 54.0 °F 51% 30.03 in 10.0 mi SW 4.6 mph - N/A   Scattered Clouds
12:53 PM 75.0 °F 55.9 °F 51% 30.02 in 10.0 mi Variable 6.9 mph - N/A   Partly Cloudy
1:53 PM 73.9 °F 55.0 °F 52% 30.01 in 10.0 mi WSW 10.4 mph 17.3 mph N/A   Partly Cloudy
2:53 PM 75.9 °F 55.9 °F 50% 30.01 in 10.0 mi SW 9.2 mph - N/A   Partly Cloudy
3:53 PM 75.0 °F 57.9 °F 55% 30.01 in 10.0 mi SW 10.4 mph - N/A   Partly Cloudy
4:53 PM 75.0 °F 59.0 °F 57% 30.02 in 10.0 mi SW 12.7 mph - N/A   Clear
5:53 PM 73.0 °F 57.9 °F 59% 30.02 in 10.0 mi SW 11.5 mph - N/A   Clear
6:53 PM 70.0 °F 60.1 °F 71% 30.02 in 10.0 mi SW 6.9 mph - N/A   Clear
7:53 PM 68.0 °F 61.0 °F 78% 30.03 in 10.0 mi SW 5.8 mph - N/A   Clear
8:53 PM 64.0 °F 61.0 °F 90% 30.04 in 10.0 mi SW 5.8 mph - N/A   Clear
9:53 PM 63.0 °F 60.1 °F 90% 30.04 in 10.0 mi Calm Calm - N/A   Clear
10:53 PM 63.0 °F 61.0 °F 93% 30.04 in 10.0 mi Calm Calm - N/A   Clear
11:53 PM 62.1 °F 60.1 °F 93% 30.06 in 10.0 mi SW 4.6 mph - N/A   Clear